Regional Weather Roundup
Issued by NWS Grand Forks, ND

Home | Current Version | Previous Version | Text Only | Print | Product List | Glossary Off
Versions: 1 2 3 4 5 6 7 8 9 10 11 12 13 14 15 16 17 18 19 20 21 22 23 24 25 26 27 28 29 30 31 32 33 34 35 36 37 38 39 40 41 42 43 44 45 46 47 48 49 50

000
ASUS43 KFGF 021931
RWRFGF
PRAIRIE TO PINES  WEATHER ROUNDUP
NATIONAL WEATHER SERVICE EASTERN NORTH DAKOTA/GRAND FORKS ND
200 PM CDT SUN AUG 02 2015

 **SATELLITE DATA USED TO AUGMENT SKY COVER AT AUTOMATED STATIONS**
 *****  WEATHER ACROSS EASTERN NORTH DAKOTA  *****

CITY           SKY/WX    TMP DP  RH WIND       PRES   REMARKS
GRAND FORKS    MOSUNNY   75  51  43 N14G26    29.82R
GRAND FRKS AFB MOSUNNY   75  50  41 NW21      29.84R
DEVILS LAKE    SUNNY     73  45  35 NW14G23   29.89R
FARGO          MOSUNNY   77  54  44 N17       29.83R
WAHPETON ARPT  MOCLDY    77  50  38 NW17G24   29.83R
$$

 ***** WEATHER ACROSS CENTRAL AND WESTERN NORTH DAKOTA  *****

CITY           SKY/WX    TMP DP  RH WIND       PRES   REMARKS
BISMARCK       MOSUNNY   78  54  43 N15       29.94F
MINOT          MOSUNNY   73  48  41 N12       29.94F
JAMESTOWN      PTSUNNY   75  56  51 N15       29.88F
MINOT AFB      MOSUNNY   76  50  39 NW13      29.93F
GARRISON         N/A     74  54  49 N8G16     29.95F
WILLISTON      MOSUNNY   79  50  36 N8G18     30.00S
DICKINSON      SUNNY     78  50  37 N8G17     29.99S
HETTINGER      SUNNY     81  48  31 N13G20    30.00S
$$

 *****  OTHER AIRPORT OBSERVATIONS IN OUR AREA  *****

CITY           SKY/WX    TMP DP  RH WIND       PRES   REMARKS
WALHALLA       FAIR      73  46  38 MISG      29.83S
GRAFTON AIRPOR FAIR      75  48  38 NW14G23   29.84S
VALLEY CITY AR FAIR      75  55  50 N22G28    29.87S
CANDO          FAIR      73  48  40 NW10G23   29.90S
CAVALIER APRT  FAIR      75  45  33 N15G23    29.83S
GWINNER        MOCLDY    77  57  50 N12G20    29.87R
ROLLA            N/A     68  50  52 NW14G25   29.92S
 ***** THE ABOVE OBSERVATIONS ARE NON NWS ARE NOT QUALITY
       CONTROLLED AND MAY MIS-REPORT RAIN FOR SNOW...
$$

  *****  WEATHER ACROSS NORTHERN MINNESOTA  *****

CITY           SKY/WX    TMP DP  RH WIND       PRES   REMARKS
FLAG ISLAND    MOSUNNY   70  45  40 W23G35    29.72R
WARROAD        SUNNY     72  54  53 NW17      29.76R
ROSEAU         MOSUNNY   72  54  53 NW15G22   29.77R
HALLOCK        MOSUNNY   75  43  31 NW17G29   29.80S
THF RVR FALLS  MOSUNNY   72  46  40 NW18G24   29.81S
BAUDETTE       MOSUNNY   73  46  38 NW14G28   29.74R
WASKISH        MOSUNNY   72  48  43 W13       29.76R
CROOKSTON      MOSUNNY   73  54  49 N17       29.82S
STEPHEN NDAWN    N/A     73  46  38 N18         N/A
GREENBUSH NDAW   N/A     73  46  38 NW14        N/A
$$
  *****  WEATHER ACROSS CENTRAL AND WEST MINNESOTA  *****

CITY           SKY/WX    TMP DP  RH WIND       PRES   REMARKS
FOSSTON        MOSUNNY   73  46  38 NW18G24   29.82R
BEMIDJI        PTSUNNY   74  48  39 NW21G30   29.79R
PARK RAPIDS    MOSUNNY   78  53  41 NW22G28   29.77R
ELBOW LAKE     FAIR      74  58  55 NW16G26   29.82R
WADENA         MOSUNNY   75  55  50 N16G23    29.79R
DETROIT LAKES  MOSUNNY   73  54  49 NW15G23   29.83S
MOORHEAD       SUNNY     75  55  50 N17       29.84R
FERGUS FALLS   SUNNY     75  57  53 N17G25    29.81R
MORRIS MN      SUNNY     79  57  47 NW20G28   29.81R
STAPLES        MOSUNNY   77  54  44 NW20G25   29.77R
$$
  *****  WEATHER ELSEWHERE ACROSS MINNESOTA  *****

CITY           SKY/WX    TMP DP  RH WIND       PRES   REMARKS
DULUTH         PTSUNNY   74  57  55 NW15      29.68R
INTRNTL FALLS  MOSUNNY   71  47  42 W21G28    29.70R
ELY            PTSUNNY   70  48  46 NW8G26    29.68R
CLOQUET        PTSUNNY   75  54  46 NW16G22   29.69S
WHEATON        MOSUNNY   75  57  53 N15G21    29.85R
BRAINERD       MOSUNNY   77  55  46 NW15      29.74R
HIBBING        LGT RAIN  69  55  60 NW18G26   29.70R
ALEXANDRIA     PTSUNNY   78  58  49 N15G24    29.81R
SAINT CLOUD    PTSUNNY   83  61  47 NW18      29.72R
MINNEAPOLIS    MOSUNNY   84  68  58 NW21      29.68R
$$

  *****  WEATHER ACROSS SOUTH DAKOTA  *****

CITY           SKY/WX    TMP DP  RH WIND       PRES   REMARKS
SIOUX FALLS    MOSUNNY   85  66  53 N9        29.83R
BROOKINGS      SUNNY     81  61  50 N16G22    29.87R
WATERTOWN      SUNNY     79  58  48 NW18      29.86S
HURON          SUNNY     82  58  43 N16       29.86S
SISSETON         N/A     77  60  55 N16       29.84R
ABERDEEN       SUNNY     82  56  40 N15       29.87F
MITCHELL       SUNNY     84  64  50 N16       29.86S
PIERRE         SUNNY     86  53  32 NE14G23   29.90R
MOBRIDGE       SUNNY     82  56  40 N18G25    29.90S
RAPID CITY     SUNNY     82  55  39 NE10      30.01F
$$

  *****  SOME WEATHER IN NEARBY STATES *****

CITY           SKY/WX    TMP DP  RH WIND       PRES   REMARKS
GLASGOW MT     SUNNY     80  48  32 N10       30.02F
GREAT FALLS MT SUNNY     78  52  40 N7        30.06F
CHEYENNE WY    PTSUNNY   80  41  24 N3        30.16R
SCOTTSBLUFF NE SUNNY     92  58  31 CALM      29.99F HX  91
OMAHA NE       MOSUNNY   96  71  44 W14       29.81S HX 103
DES MOINES IA  MOSUNNY   93  72  50 W21G28    29.77F HX 101
DAVENPORT IA   MOSUNNY   88  73  61 SW15G23   29.78F HX  95
CHICAGO IL     MOSUNNY   90  66  45 SW20G33   29.75F HX  92
EAU CLAIRE WI  PTSUNNY   84  68  58 NW16G23   29.63R
LA CROSSE WI   SUNNY     92  69  47 SW17G29   29.59F HX  97
$$

  *****  SOME NATIONAL WEATHER *****

CITY           SKY/WX    TMP DP  RH WIND       PRES   REMARKS
LA GUARDIA NY  PTSUNNY   87  55  33 S17       29.88F
RALEIGH NC     MOSUNNY   88  57  34 E6        29.96F
ATLANTA GA     PTSUNNY   90  62  39 CALM      29.94F HX  90
NEW ORLEANS LA MOSUNNY   94  60  32 NE8       29.89F HX  94
OKLAHOMA CITY  LGT RAIN  76  69  79 SE9       29.98F
ALBUQUERQUE NM PTSUNNY   80  55  42 W6        30.16F
SALT LAKE CITY PTSUNNY   90  43  19 CALM      29.97F
LOS ANGELES CA MOSUNNY   75  65  70 SW9       29.92F
BOISE ID       SUNNY     95  36  12 CALM      29.90F HX  90
SEATTLE WA     PTSUNNY   76  55  48 VRB5      29.95F
$$

*** WEATHER ACROSS MANITOBA...SASKATCHEWAN AND ONTARIO ***
                ***ONTARIO***

CITY           SKY/WX    TMP DP  RH WIND       PRES   REMARKS
GERALDTON      PTSUNNY   70  50  49 SW13G18   29.53S
THUNDER BAY    PTSUNNY   75  52  43 NW14G21   29.57
SIOUX LOOKOUT  CLOUDY    66  48  52 NW13G21   29.62
TORONTO        PTSUNNY   86  55  35 SW15G25   29.76F
BIG TROUT LK   LGT RAIN  54  50  87 NW13      29.50S
PICKLE LAKE    LGT RAIN  57  48  72 NW8G22    29.56R
DRYDEN         PTSUNNY   68  45  42 W21G31    29.65F
KENORA         PTSUNNY   66  48  52 N14G21    29.71R
$$
                *** MANITOBA***

CITY           SKY/WX    TMP DP  RH WIND       PRES   REMARKS
BRANDON        MOSUNNY   73  45  35 NW24G32   29.88F
DAUPHIN        SUNNY     73  43  33 NW15G23   29.84S
ISLAND LAKE    LGT RAIN  54  50  87 NW12G18   29.63R
PILOT MOUND      N/A     72  46  40 NW17G25     N/A
THE PAS        PTSUNNY   64  46  52 N17G28    29.83R
THOMPSON       LGT RAIN  55  50  82 N16G25    29.71R
WINNIPEG       MOSUNNY   72  46  40 NW22G33   29.79R
LYNN LAKE      CLOUDY    57  48  72 NW14G21   29.83S
CHURCHILL      LGT RAIN  46  46 100 N22G30    29.64R FOG
GILLAM         DRZL/FOG  52  48  87 N16G23    29.62R VSB 1
$$
                ***SASKATCHEWAN***

CITY           SKY/WX    TMP DP  RH WIND       PRES   REMARKS
ESTEVAN        MOSUNNY   75  52  43 NW13G23   29.98F
KINDERSLEY     PTSUNNY   73  52  46 SW5       30.04F
LLOYDMINSTER   MOSUNNY   73  48  40 VRB3      30.04F
PRINCE ALBERT  MOSUNNY   72  52  49 NW15      29.97
REGINA         MOSUNNY   73  52  46 N12G24    30.01S
YORKTON        SUNNY     72  45  37 NW21G29   29.93F
N. BATTLEFORD  SUNNY     70  50  49 NW10      30.04F
LA RONGE       MOSUNNY   72  41  33 W13G20    29.94F
SASKATOON      PTSUNNY   73  46  38 NW9       30.03F
SWIFT CURRENT  MOSUNNY   70  52  52 NE3       30.06F
$$
NOTE: THESE ARE AUTOMATED STATIONS WITH LIMITED QUALITY CONTROL
      "FAIR" INDICATES FEW OR NO CLOUDS BELOW 12,000 FEET WITH NO
      SIGNIFICANT WEATHER AND/OR OBSTRUCTIONS TO VISIBILITY.
      SKY/WX - SKY CONDITION AND SIGNIFICANT WEATHER.
      TMP - AIR TEMPERATURE.    DP   - DEWPOINT TEMPERATURE.
      RH  - RELATIVE HUMIDITY.  PRES - PRESSURE.
      HX  - HEAT INDEX.         WCI  - WIND CHILL INDEX.
$



USA.gov is the U.S. government's official web portal to all federal, state and local government web resources and services.